haerbin , China , ASIA

  • Wednesday
    April 25

      Sunny

      48 °F

      Southwest

      3~4L 

  • Thursday
    April 26

    Cloudy  Cloudy

    70 °F  30 °F

    North  North

    4~5L   3~4L 

  • Friday
    April 27

    Sunny  Cloudy

    70 °F  52 °F

    West  West

    3~4L   3~4L 

  • Saturday
    April 28

    Cloudy  Cloudy

    75 °F  50 °F

    West  Northwest

    3~4L   3~4L 

  • Sunday
    April 29

    Cloudy  Cloudy

    68 °F  41 °F

    North  Northeast

        

  • Monday
    April 30

    Cloudy  Cloudy

    68 °F  46 °F

    East  East

        

  • Tuesday
    May 1

    Cloudy  Shower

    59 °F  46 °F

    East  East

    3~4L    

Date   Weather Temperature Humidity Total_rain Visibility Wind
23:00 Sunny 69°F 53.9% 0mm 12km Southwest  6.5m/s
02:00 Sunny 64°F 57.6% 0mm 12km Southwest  6.9m/s
05:00 Sunny 59°F 56.9% 0mm 12km Southwest  6.0m/s
08:00 Sunny 59°F 64.6% 0mm 0.4km Northeast  9.9m/s
11:00 Cloudy 63°F 56.4% 0mm 12km Northeast  10.2m/s
14:00 Cloudy 65°F 48.5% 0mm 4km Northwest  8.3m/s
17:00 Cloudy 58°F 46.5% 0mm 12km Northwest  7.3m/s
20:00 Cloudy 49°F 39.1% 0mm 12km Northwest  3.9m/s
23:00 Cloudy 31°F 64.1% 0mm 12km Northwest  1.9m/s
02:00 Cloudy 31°F 69.1% 0mm 12km Northwest  2.2m/s
05:00 Cloudy 31°F 71.7% 0mm 12km Southwest  2.7m/s
08:00 Cloudy 47°F 49.7% 0mm 12km Southwest  5.2m/s
11:00 Sunny 69°F 37% 0mm 12km Southwest  7.3m/s
14:00 Sunny 67°F 23.9% 0mm 12km Southwest  7.7m/s
17:00 Sunny 61°F 30.2% 0mm 12km Southwest  4.1m/s
20:00 Sunny 55°F 22% 0mm 12km Southwest  4.1m/s
23:00 Cloudy 55°F 63.2% 0mm 12km Southwest  5.0m/s
02:00 Cloudy 53°F 72.1% 0mm 8km Southeast  4.8m/s
05:00 Cloudy 52°F 67.7% 0mm 12km Southwest  5.9m/s
08:00 Cloudy 62°F 61.4% 0mm 12km Southwest  7.1m/s
11:00 Cloudy 73°F 48% 0mm 12km Southwest  7.5m/s
14:00 Cloudy 74°F 33.2% 0mm 12km Southwest  9.6m/s
17:00 Cloudy 75°F 33.2% 0mm 12km Southwest  6.0m/s
20:00 Cloudy 69°F 26.8% 0mm 12km Northwest  1.3m/s
23:00 Cloudy 68°F 64.6% 0mm 12km Northwest  4.4m/s
02:00 Cloudy 66°F 82% 0mm 12km Northeast  6.5m/s
05:00 Cloudy 59°F 77.5% 0mm 12km Northeast  5.6m/s
08:00 Cloudy 58°F 69.5% 0mm 12km Northeast  5.1m/s
11:00 Cloudy 57°F 64% 0mm 12km Northeast  4.0m/s
14:00 Cloudy 61°F 55.1% 0mm 12km Northeast  3.5m/s
17:00 Cloudy 64°F 54.9% 0mm 12km Northwest  3.7m/s
20:00 Cloudy 50°F 48% 0mm 12km Northwest  3.3m/s
23:00 Cloudy 49°F 59.9% 0mm 12km Northwest  1.8m/s
02:00 Cloudy 41°F 63.5% 0mm 12km Northwest  2.1m/s
05:00 Cloudy 45°F 67.1% 0mm 8km Northeast  2.9m/s
08:00 Cloudy 51°F 56.6% 0mm 12km Northeast  3.1m/s
11:00 Cloudy 64°F 47.1% 0mm 12km Northeast  3.4m/s
14:00 Cloudy 68°F 40.7% 0mm 12km Northeast  2.9m/s
17:00 Cloudy 60°F 41% 0mm 12km Northeast  2.2m/s
20:00 Cloudy 58°F 37.9% 0mm 12km Northeast  3.0m/s
23:00 Cloudy 52°F 46.5% 0mm 12km Northeast  4.5m/s
02:00 Cloudy 51°F 55.7% 0mm 12km Northeast  3.1m/s
05:00 Cloudy 47°F 67.2% 0mm 12km Northeast  4.3m/s
08:00 Cloudy 52°F 77.9% 0mm 12km Northeast  5.2m/s
11:00 Cloudy 56°F 75% 0mm 12km Northeast  4.7m/s
14:00 Cloudy 59°F 69.2% 0mm 12km Northeast  5.3m/s
17:00 Cloudy 58°F 62% 0mm 8km Northeast  4.9m/s
20:00 Cloudy 53°F 47.3% 0mm 12km Northeast  3.5m/s
23:00 Shower 50°F 74.9% 2.3mm 8km Northeast  3.2m/s
02:00 Shower 49°F 79.6% 2.3mm 12km Northeast  4.1m/s
05:00 Shower 47°F 74.7% 2.3mm 12km Northeast  4.3m/s